Regional Weather Roundup
Issued by NWS

Home | Current Version | Previous Version | Text Only | Print | Product List | Glossary Off
Versions: 1 2 3 4 5 6 7 8 9 10 11 12 13 14 15 16 17 18 19 20 21 22 23 24 25 26 27 28 29 30 31 32 33 34 35 36 37 38 39 40 41 42 43 44 45 46 47 48 49 50

000
ASUS43 KMKX 230310
RWRWI

WISCONSIN REGIONAL WEATHER ROUNDUP
NATIONAL WEATHER SERVICE MILWAUKEE/SULLIVAN WI
900 PM CST SUN JAN 22 2017

NOTE: "FAIR" INDICATES FEW OR NO CLOUDS BELOW 12,000 FEET WITH NO
SIGNIFICANT WEATHER AND/OR OBSTRUCTIONS TO VISIBILITY.

WIZ001-002-006>008-014>016-023>028-230400-
NORTHWEST WISCONSIN

CITY           SKY/WX    TMP DP  RH WIND       PRES   REMARKS
SUPERIOR ARPT  CLOUDY    35  35 100 CALM      29.74S
ASHLAND        CLOUDY    34  34 100 S3        29.73F FOG
HAYWARD        FOG       34  33  96 CALM      29.72S VSB 1/4
SIREN          FOG       35  35  99 NW3       29.74S VSB 3/4
CUMBERLAND     FOG       34  32  93 W3        29.73R VSB 1
RICE LAKE      FOG       35  35  99 W3        29.75R VSB 1/2
CHETEK         FOG       35  35 100 CALM      29.74S VSB 3/4
LADYSMITH      FOG       35  35  99 CALM      29.73S VSB 3/4
EAU CLAIRE     FOG       34  34 100 W3        29.74S VSB 3/4
MENOMONIE        N/A    N/A N/A N/A MISG        N/A
NEW RICHMOND   CLOUDY    35  35 100 W5        29.76S FOG     WCI  31
OSCEOLA        CLOUDY    36  36 100 W5        29.79R FOG     WCI  32
$$

WIZ003>005-009-010-017-018-230400-
NORTH CENTRAL WISCONSIN

CITY           SKY/WX    TMP DP  RH WIND       PRES   REMARKS
MANITOWISH WTR CLOUDY    32  32 100 CALM      29.69S
ARBOR VITAE    CLOUDY    36  35  96 NW5       29.69S WCI  32
WOODRUFF       CLOUDY    36  35  96 NW5       29.69S WCI  32
RHINELANDER    CLOUDY    35  35 100 VRB3      29.68F
EAGLE RIVER    CLOUDY    33  33 100 NW3       29.68R
LAND O LAKES   CLOUDY    34  34 100 NW3       29.69S
PHILLIPS       CLOUDY    33  33 100 CALM      29.70S
TOMAHAWK       CLOUDY    33  33  96 CALM      29.70S
MEDFORD        FOG       33  33  99 NW5       29.69S VSB 3/4 WCI  29
MERRILL        CLOUDY    35  35 100 N6          N/A  WCI  30
$$

WIZ029-030-035-036-043>047-230400-
CENTRAL WISCONSIN

CITY           SKY/WX    TMP DP  RH WIND       PRES   REMARKS
WAUSAU         CLOUDY    36  35  96 CALM      29.69R FOG
MOSINEE        CLOUDY    36  36 100 NW5       29.70S WCI  32
MARSHFIELD     FOG       34  33  96 NW6       29.69S VSB 3/4 WCI  29
STEVENS POINT  CLOUDY    34  34 100 NW3       29.71R FOG
WAUPACA        CLOUDY    38  37  97 CALM      29.69S
WAUTOMA        CLOUDY    36  35  96 NW7       29.71S WCI  30
WISC RAPIDS    CLOUDY    35  35 100 NW6       29.72R FOG     WCI  30
CAMP DOUGLAS   CLOUDY    35  35  99 NW7       29.72S FOG     WCI  29
$$

WIZ011>013-019>022-031-037>040-048>050-230400-
NORTHEAST WISCONSIN

CITY           SKY/WX    TMP DP  RH WIND       PRES   REMARKS
ANTIGO         CLOUDY    34  34 100 N8        29.69R WCI  28
SHAWANO        CLOUDY    38  37  96 NW3       29.69S FOG
OCONTO         CLOUDY    33  33  99 W3        29.68S VSB 1/4
STURGEON BAY   FOG       35  35 100 W3        29.68  VSB 1/4
GREEN BAY      FOG       37  37 100 CALM      29.67F VSB 1/2
MANITOWOC      CLOUDY    37  36  96 W7        29.68S FOG     WCI  32
APPLETON       CLOUDY    36  36 100 NW6       29.67S FOG     WCI  31
CLINTONVILLE   CLOUDY    36  36 100 NW6       29.69S WCI  31
OSHKOSH        CLOUDY    36  35  96 NW6       29.67F WCI  31
$$

WIZ032>034-041-042-053>061-230400-
SOUTHWEST WISCONSIN

CITY           SKY/WX    TMP DP  RH WIND       PRES   REMARKS
LA CROSSE      CLOUDY    39  35  86 CALM      29.75S
SPARTA         CLOUDY    34  34 100 CALM      29.75S
VIROQUA        CLOUDY    34  34 100 NW9       29.72S VSB 1/2 WCI  27
BOSCOBEL       CLOUDY    38  35  89 NW3       29.74S
PRAIRIE DU CHI CLOUDY    37  34  90 NW6       29.74S WCI  32
PLATTEVILLE    CLOUDY    36  36 100 NW13      29.70S WCI  28
$$

WIZ056-057-062-063-064-067-068-230400-
SOUTH CENTRAL WISCONSIN

CITY           SKY/WX    TMP DP  RH WIND       PRES   REMARKS
REEDSBURG      CLOUDY    35  35 100 NW7       29.71S FOG     WCI  29
BARABOO/DELLS  CLOUDY    35  35  99 NW8       29.70S FOG     WCI  29
LONE ROCK      CLOUDY    38  35  89 NW9       29.72S WCI  31
MINERAL POINT  CLOUDY    36  36 100 NW9       29.68F FOG     WCI  29
MADISON        CLOUDY    37  36  96 N7        29.69F WCI  32
MIDDLETON      CLOUDY    37  37 100 NW8       29.68F WCI  31
WATERTOWN      CLOUDY    37  37 100 N7        29.68S WCI  31
MONROE         CLOUDY    36  36 100 N12       29.68R WCI  27
JANESVILLE     CLOUDY    39  39 100 N7        29.68S WCI  34
$$

WIZ051-052-058>065-066-070>072-230400-
SOUTHEAST WISCONSIN

CITY           SKY/WX    TMP DP  RH WIND       PRES   REMARKS
MILWAUKEE      FOG       38  36  92 NW8       29.68R VSB 1   WCI  32
WAUKESHA       CLOUDY    34  34 100 CALM      29.68R
MILWAUKEE/TIMM CLOUDY    36  34  93 N6        29.68S FOG     WCI  31
RACINE         FOG       38  36  92 N8        29.69R VSB 3/4 WCI  32
KENOSHA        CLOUDY    39  35  86 N5        29.68R
FOND DU LAC    CLOUDY    37  34  89 NW5       29.67F WCI  33
SHEBOYGAN      CLOUDY    38  35  89 NW7       29.67F WCI  33
WEST BEND      CLOUDY    36  36 100 N7        29.67S FOG     WCI  30
JUNEAU         CLOUDY    36  35  97 NW7       29.68F FOG     WCI  30
$$

LSZ147-162-230400-
LAKE SUPERIOR

STATION/POSITION TIME  TEMP    WIND        PRES    WAVE
                       AIR SEA DIR/SP/G            HT/PER
                 (UTC) (F)     (DEG/KT/KT) (MB)    (FT/S)
DEVILS ISLAND    0200   34     230/  6/  6 1007.4R
PORT WING        0240   34     200/  2/  4 1006.8F
SAXON HARBOR     0230   33      CALM  /  2 1006.8F
$$

LMZ867-665-643>646-230400-
LAKE MICHIGAN

STATION/POSITION TIME  TEMP    WIND        PRES    WAVE
                       AIR SEA DIR/SP/G            HT/PER
                 (UTC) (F)     (DEG/KT/KT) (MB)    (FT/S)
NORTHPORT PIER   0240   33     310/  2/  4 1005.1S
SISTER BAY       0220   33        CALM       N/A
KEWAUNEE LAKESHO 0248   36     300/  3/  5 1004.6
SHEBOYGAN LAKESH 0300   38     310/  6/  8 1005.1F
PORT WASHINGTON  0240   38     320/  4/  6 1006.1S
KENOSHA   LAKESH 0300   38     350/  6/  7 1005.4
$$

TC  - TEMPERATURE IN CELSIUS
VSB - VISIBILITY IN STATUTE MILES
WCI - WIND CHILL INDEX
HX  - HEAT INDEX





USA.gov is the U.S. government's official web portal to all federal, state and local government web resources and services.